Temperature
6 5 5 5 5 6 6 5 5 6 6 5 5 4 5 5 5 5 5 5 6 6 6 6 7 7 7 7 7 7 8 8 8 8 8 8 8 8 8 8 8 8 9 9
5 5 5 5 6 6 6 5 5 5 6 5 4 4 5 5 5 5 5 5 5 5 6 6 6 7 7 7 7 7 7 7 7 7 7 7 7 8 8 8 8 8 8 8
5 6 6 6 5 6 6 5 5 5 5 5 5 5 5 5 5 5 5 5 5 5 5 6 6 6 6 6 6 6 7 7 7 7 7 7 7 7 7 7 7 7 8 8
5 5 6 5 5 5 5 6 5 5 5 4 5 4 4 4 4 4 4 4 5 5 5 5 5 5 6 6 6 6 6 6 7 7 7 7 7 7 7 7 7 7 7 7
5 5 5 5 5 5 5 5 5 5 4 4 4 4 4 4 4 4 4 4 4 4 5 5 5 5 5 5 5 6 6 6 6 6 6 6 6 6 6 6 6 6 7 7
4 5 5 5 5 5 5 4 4 3 3 4 4 4 4 3 3 3 3 4 4 4 5 5 5 5 5 5 5 5 5 5 6 6 6 6 6 6 6 6 6 6 6 6
4 4 4 5 5 5 4 4 4 4 3 4 4 4 4 4 3 3 3 4 4 4 4 4 4 4 5 5 5 5 5 5 5 5 5 5 5 5 5 6 6 6 6 6
4 4 4 4 4 4 4 4 4 4 4 4 3 3 4 3 4 4 4 4 4 4 4 4 4 4 4 4 4 4 5 5 5 5 5 5 5 5 5 5 6 6 6 6
3 4 4 4 4 4 4 3 3 2 2 2 3 2 3 3 3 3 3 3 3 3 4 4 4 4 4 4 4 4 4 5 5 5 5 5 5 5 5 5 5 5 5 5
3 3 3 3 4 4 3 3 2 2 3 3 3 3 3 3 2 2 2 2 3 3 3 3 3 3 4 4 4 4 4 4 4 4 4 5 5 5 5 5 5 5 5 5
3 3 3 3 3 3 3 3 2 1 2 3 3 4 3 3 2 1 1 2 3 3 3 3 3 3 3 3 3 3 4 4 4 4 4 4 4 4 4 4 4 4 4 4
2 1 2 2 3 2 2 2 2 2 2 1 2 3 3 2 2 1 1 2 2 3 3 3 3 3 3 3 3 3 3 4 4 4 4 4 4 4 4 4 4 4 4 4
2 2 2 3 3 2 2 1 1 1 0 0 1 3 2 1 1 2 2 2 2 2 2 2 2 3 3 3 3 3 3 3 3 3 3 3 3 3 4 4 3 3 3 4
2 1 2 3 3 2 1 1 1 1 1 1 1 3 3 2 1 1 1 2 2 2 2 2 2 2 2 2 2 3 3 3 3 3 3 3 3 3 3 3 3 3 3 3
1 1 -0 0 1 1 1 1 1 1 1 2 2 2 3 2 1 1 1 1 1 1 2 2 2 2 2 2 2 2 3 3 3 3 3 3 3 3 3 3 3 3 3 3
-0 0 0 1 1 1 1 1 1 1 1 1 1 2 2 1 1 1 1 1 1 1 1 1 1 1 2 2 2 2 2 2 2 2 2 2 2 2 2 2 2 2 2 2
-1 -0 0 0 0 1 1 1 1 1 0 1 2 2 1 0 0 0 1 1 1 1 1 1 1 1 1 1 1 1 2 2 2 2 2 2 2 2 2 2 2 2 2 2
-1 -1 -1 -1 0 1 3 1 1 1 1 0 1 1 -0 0 1 1 1 1 1 1 1 1 1 1 1 1 1 1 1 1 1 2 2 2 2 2 2 2 1 1 1 1
-2 -1 -2 -1 -1 1 1 1 0 0 1 0 0 0 -0 -0 -0 1 2 1 1 1 1 1 1 1 1 1 1 1 1 1 1 1 1 1 1 1 1 1 1 1 1 1
-2 -2 -2 -2 -0 1 2 1 1 1 1 1 0 -0 -1 -1 -1 0 1 1 0 0 0 0 0 1 1 1 1 1 1 1 1 1 1 1 1 1 1 1 1 1 0 0
-2 -2 -2 -2 -1 -0 1 0 1 1 2 1 1 1 -0 -1 0 1 1 1 0 -0 -0 -0 0 0 0 0 0 0 1 1 0 0 0 1 1 1 0 0 0 0 -0 -0
-2 -2 -3 -3 -1 0 -0 -1 -0 1 1 1 1 1 0 0 1 1 0 0 -0 -0 -1 -1 -0 -0 -0 -0 -0 -0 0 0 0 0 0 0 0 0 -0 -0 -0 -0 -1 -1
-3 -2 -2 -1 0 0 0 0 1 1 1 1 1 1 1 0 0 0 -0 -0 -1 -1 -1 -1 -1 -1 -1 -1 -1 -1 -0 -0 -0 -0 -0 -0 -0 -0 -1 -1 -1 -1 -1 -1
-3 -3 -3 -3 -2 -1 0 1 1 1 1 1 1 1 0 0 -0 -0 -1 -1 -1 -1 -1 -1 -1 -1 -1 -1 -1 -1 -1 -1 -1 -1 -1 -1 -1 -1 -1 -1 -2 -2 -2 -2
-2 -4 -4 -3 -2 -1 0 1 2 1 1 1 1 1 0 -0 -0 -0 -1 -1 -1 -1 -2 -2 -2 -2 -2 -2 -2 -2 -2 -2 -1 -1 -1 -1 -1 -2 -2 -2 -2 -2 -2 -3
-3 -3 -3 -1 -0 -1 1 2 2 1 1 1 0 0 -0 -1 -1 -1 -1 -1 -2 -2 -2 -2 -2 -2 -2 -2 -2 -2 -2 -2 -2 -2 -2 -2 -2 -2 -2 -3 -3 -3 -3 -3
Wind_Speed
3 4 0 3 3 3 3 2 4 5 2 1 2 5 6 4 1 2 3 3 3 4 3 2 2 2 2 2 3 2 1 1 0 1 1 1 1 1 1 1 1 0 1 1
3 1 3 2 1 1 2 2 3 3 1 1 2 5 5 3 2 3 3 3 4 4 4 3 3 2 2 2 3 2 1 1 1 1 1 2 2 2 1 1 1 1 1 0
2 2 1 1 0 1 2 3 3 4 4 1 2 5 4 3 2 2 2 2 3 2 3 3 3 3 3 3 3 3 2 2 1 1 0 0 0 1 1 1 1 2 1 1
0 2 0 1 1 0 3 3 3 2 2 3 1 3 5 3 3 4 4 3 3 3 3 2 3 3 3 3 3 3 2 2 2 1 1 2 2 1 1 1 1 2 2 1
1 1 1 0 2 1 3 2 2 1 1 2 1 1 6 1 3 5 5 4 4 3 3 3 3 4 4 3 3 3 2 2 1 1 1 2 2 1 1 0 0 1 1 2
1 1 0 0 2 0 1 1 2 3 2 2 3 2 5 3 4 4 4 4 5 4 3 3 3 3 3 3 3 3 2 3 2 1 1 2 2 2 1 1 0 1 1 0
3 2 2 1 2 3 3 3 3 4 2 4 1 2 6 4 4 4 5 5 4 3 3 3 4 4 4 4 3 3 2 3 3 1 1 1 2 3 3 2 2 1 0 0
1 3 2 1 1 1 0 2 3 3 3 4 2 4 6 3 4 3 3 3 4 4 3 4 4 3 4 4 4 3 3 3 3 2 1 1 2 2 2 3 2 2 1 1
2 3 2 2 1 3 2 1 2 3 0 2 5 6 7 2 5 5 6 5 5 5 5 5 4 3 3 4 4 4 3 4 4 2 2 1 1 1 2 2 2 1 1 0
3 2 3 2 2 2 1 3 3 2 1 3 5 5 5 5 6 5 5 5 6 6 6 6 5 4 4 4 4 4 3 4 4 2 2 1 1 1 2 2 2 2 1 1
2 2 2 2 1 2 1 2 2 2 2 3 4 6 4 5 5 4 5 5 5 6 6 6 5 4 4 4 4 4 4 4 3 1 1 0 0 1 1 2 2 2 1 1
2 3 2 4 2 1 3 3 4 3 3 3 3 7 3 3 4 4 5 6 5 5 5 5 5 4 5 5 4 4 4 4 3 2 1 0 0 1 1 1 1 2 1 1
3 3 1 4 2 1 1 2 3 3 2 3 4 7 3 3 5 5 5 6 5 5 5 5 5 5 5 5 5 5 4 4 3 2 1 0 1 0 1 1 1 1 1 1
3 3 5 6 5 3 4 4 4 4 4 5 8 10 9 7 7 7 6 6 5 5 5 5 5 4 5 5 4 5 5 4 3 2 1 0 1 1 1 1 1 1 1 1
3 2 3 5 5 4 6 6 6 7 8 8 8 9 11 7 6 6 6 6 5 5 5 5 5 5 5 5 5 5 5 5 3 2 1 1 1 0 1 0 0 1 1 1
2 2 1 4 4 4 6 8 8 8 7 9 9 11 8 4 4 5 6 6 6 6 6 6 6 6 5 5 5 5 5 5 3 2 1 1 1 1 0 0 1 1 0 0
2 2 0 4 5 4 7 8 9 6 6 7 9 9 4 4 6 6 6 6 6 6 6 6 6 5 5 5 5 5 5 4 3 2 1 1 1 1 1 1 1 1 0 0
4 3 2 1 3 5 7 2 5 7 8 8 8 6 5 6 7 6 5 5 5 6 6 6 5 6 6 5 5 4 4 3 3 2 2 1 1 0 0 1 0 0 0 0
4 5 2 1 3 9 8 3 4 5 7 7 8 7 4 3 4 5 4 3 5 5 5 5 5 5 5 5 4 3 3 3 2 2 2 2 1 0 0 0 0 0 0 0
3 3 3 2 3 7 6 2 2 2 6 5 5 5 3 0 3 6 4 3 4 4 4 4 4 4 4 5 4 2 2 2 3 3 3 2 1 1 1 1 0 0 0 0
2 2 4 4 6 9 6 2 3 2 7 4 4 4 4 5 5 5 4 4 3 3 4 3 3 4 4 4 3 2 2 2 3 3 2 2 1 1 1 0 1 1 1 1
7 6 6 5 5 9 3 5 6 7 4 3 3 4 4 4 4 4 3 3 3 3 3 3 3 4 4 4 2 2 3 3 3 2 2 2 1 1 0 1 1 1 1 2
8 8 6 9 9 5 5 6 5 3 4 4 4 4 3 3 4 4 3 3 3 3 3 2 2 4 5 4 2 2 3 3 2 2 2 2 2 1 1 1 1 1 1 1
5 4 4 6 10 8 8 7 6 5 5 5 4 4 3 4 4 4 4 3 3 3 2 2 2 3 4 5 4 2 3 2 2 2 2 2 2 2 2 1 1 1 1 0
7 6 5 8 8 7 7 8 7 5 5 4 4 3 3 3 4 4 4 4 3 3 2 1 2 3 4 4 4 3 2 2 2 1 1 1 1 1 1 2 1 1 0 1
7 8 8 9 7 6 7 5 5 5 5 5 3 3 3 3 4 3 4 3 3 2 2 2 2 3 3 3 4 4 2 1 1 1 1 1 1 1 1 1 2 3 2 3
Wind_Direction
26 68 59 252 226 223 206 222 267 279 284 321 266 275 286 296 306 278 284 284 291 286 302 331 323 321 343 348 352 321 308 315 353 170 184 236 274 304 318 343 15 17 17 17
44 339 257 227 225 203 200 249 273 291 303 284 278 277 271 273 249 238 261 280 284 304 337 343 340 345 332 320 321 326 300 310 292 253 211 216 233 255 284 326 354 4 25 11
168 246 265 139 51 3 280 224 255 282 327 360 295 296 264 274 286 299 284 281 297 293 298 323 344 339 326 318 303 316 298 286 269 276 227 141 19 360 2 325 309 342 359 1
190 288 326 49 328 332 279 271 257 271 329 308 8 288 282 260 301 317 307 312 308 306 311 331 335 327 321 314 310 296 306 290 272 225 195 199 206 232 246 254 276 327 360 5
281 335 76 307 290 265 249 301 281 268 206 311 327 225 288 298 295 295 296 298 295 294 305 318 316 307 321 321 311 293 313 306 286 242 201 203 210 233 232 101 357 342 351 12
285 329 69 249 330 233 237 30 48 51 67 296 247 198 282 245 251 286 291 288 289 295 301 309 318 333 338 338 336 315 318 321 309 274 199 200 201 199 171 158 181 312 316 350
347 342 349 34 29 22 52 78 21 358 351 261 274 233 259 261 249 248 267 278 290 303 309 318 334 339 329 325 320 308 307 318 308 287 227 208 206 198 187 189 187 208 271 292
28 297 309 358 170 202 220 125 152 221 250 289 319 252 264 278 278 273 288 311 335 337 329 319 311 309 317 311 305 300 294 302 299 278 256 227 211 203 192 193 187 192 217 232
169 261 328 338 320 135 130 162 166 146 239 282 276 282 298 307 329 336 342 344 332 323 317 314 318 318 320 316 306 295 291 301 294 268 249 238 219 196 187 192 177 186 198 219
163 237 299 316 65 36 129 145 97 120 203 277 288 276 267 285 297 314 320 315 310 318 322 319 318 319 317 312 312 313 304 294 288 270 247 232 239 205 187 180 177 182 180 172
137 157 310 5 185 203 88 100 111 126 171 188 275 275 239 243 269 280 290 299 304 309 312 314 315 318 320 325 328 324 316 313 310 302 293 295 287 200 169 172 181 170 164 168
135 130 259 260 258 188 170 181 159 170 241 207 229 271 287 256 281 293 297 304 311 311 313 317 318 332 335 332 330 324 323 320 319 320 312 291 58 104 135 177 165 150 156 178
137 118 14 343 345 3 225 209 186 152 151 192 212 266 307 330 321 311 303 309 318 323 328 333 336 338 332 329 326 322 322 322 329 343 355 16 28 124 145 194 154 153 155 151
116 141 187 214 246 224 241 238 200 172 202 230 232 260 289 304 308 310 308 309 314 317 323 329 329 330 330 327 323 324 324 327 336 354 0 351 294 234 205 193 161 158 154 159
111 201 234 257 272 248 243 245 219 213 216 224 251 258 272 278 282 291 300 308 315 319 321 321 322 324 329 331 327 329 327 328 339 350 332 298 321 49 56 46 116 132 145 169
97 175 279 296 296 266 268 260 238 235 237 242 265 273 273 279 289 296 297 299 301 306 310 315 321 323 323 322 320 324 321 322 335 329 294 316 11 44 72 68 63 77 97 97
138 140 168 282 312 328 278 245 217 220 219 210 239 257 283 291 282 279 280 282 280 295 306 310 310 309 311 310 310 311 312 320 330 327 319 331 354 13 357 39 62 65 81 111
154 142 153 301 3 261 250 223 203 221 240 227 245 259 258 265 280 278 264 260 277 292 297 301 305 310 313 313 314 317 323 328 332 336 336 328 330 310 29 63 60 3 97 139
164 149 142 159 263 278 288 256 191 210 266 234 238 262 281 306 321 292 260 257 266 273 284 290 296 303 310 313 313 324 327 333 332 333 328 315 288 271 154 208 270 278 69 7
86 118 143 162 223 256 264 259 202 124 286 257 219 243 256 52 310 288 295 289 289 297 304 309 315 320 319 317 323 334 326 335 326 318 313 313 288 219 232 247 283 22 59 283
130 139 181 201 235 264 258 218 119 171 265 290 229 232 214 215 241 276 297 300 296 304 312 322 327 324 317 321 334 338 331 313 313 324 332 338 335 292 241 115 60 44 38 34
183 181 194 177 221 257 207 139 188 232 281 279 258 248 238 256 281 293 295 295 307 320 326 332 341 334 331 336 347 338 318 315 334 352 357 349 347 340 43 95 84 78 78 58
205 198 195 201 222 259 198 213 238 241 259 262 259 266 247 266 277 288 289 288 292 297 308 323 333 333 336 342 348 325 317 339 0 22 5 354 355 0 44 99 105 90 93 88
241 192 203 252 261 258 254 253 255 249 253 263 259 256 234 253 269 281 282 284 290 295 302 324 339 332 327 333 339 323 326 350 26 27 13 17 31 28 40 56 72 86 97 120
222 183 209 252 270 287 268 241 244 255 261 269 272 254 235 235 260 263 270 275 279 293 301 293 286 296 306 324 329 330 341 11 28 23 28 24 25 42 49 38 25 18 325 243
200 189 194 232 234 218 257 251 227 229 248 251 253 269 261 231 247 259 268 271 274 281 290 298 299 299 306 318 319 324 341 10 32 15 13 11 11 25 51 56 25 17 10 3
Height
1506 1510 1513 1512 1512 1512 1512 1513 1513 1511 1508 1509 1508 1507 1504 1501 1499 1498 1497 1496 1495 1495 1494 1493 1493 1492 1491 1490 1490 1490 1490 1490 1490 1490 1490 1491 1491 1491 1492 1492 1492 1492 1493 1493
1510 1512 1510 1510 1510 1511 1511 1512 1512 1510 1508 1508 1508 1506 1501 1499 1497 1497 1496 1494 1494 1492 1491 1491 1491 1490 1488 1488 1488 1487 1488 1488 1488 1488 1489 1489 1489 1489 1489 1489 1489 1490 1490 1491
1510 1511 1508 1509 1510 1510 1510 1511 1510 1510 1508 1507 1509 1505 1501 1497 1497 1496 1494 1493 1492 1491 1490 1490 1489 1488 1488 1487 1486 1486 1485 1486 1486 1487 1487 1487 1487 1486 1486 1486 1486 1487 1487 1488
1511 1509 1509 1509 1510 1510 1510 1509 1508 1508 1511 1512 1511 1511 1500 1498 1496 1494 1493 1491 1490 1490 1489 1488 1487 1486 1485 1484 1484 1484 1484 1484 1484 1484 1484 1484 1483 1483 1483 1484 1484 1484 1485 1486
1510 1509 1509 1510 1510 1509 1510 1509 1509 1509 1511 1513 1512 1513 1503 1498 1497 1494 1493 1491 1490 1489 1487 1486 1485 1485 1483 1483 1482 1481 1481 1481 1481 1481 1481 1481 1480 1481 1481 1481 1482 1482 1482 1483
1511 1510 1510 1510 1510 1509 1509 1510 1510 1512 1515 1516 1511 1513 1506 1500 1496 1494 1491 1490 1488 1487 1486 1485 1484 1483 1482 1481 1480 1479 1478 1478 1478 1478 1479 1479 1478 1478 1478 1478 1479 1479 1480 1481
1513 1511 1511 1510 1511 1511 1511 1514 1520 1520 1522 1516 1511 1510 1504 1494 1492 1491 1490 1488 1487 1486 1484 1483 1482 1481 1480 1479 1478 1477 1476 1476 1476 1476 1477 1477 1477 1477 1476 1476 1477 1477 1477 1478
1517 1516 1512 1511 1511 1513 1514 1514 1522 1524 1523 1516 1512 1510 1499 1492 1490 1489 1488 1487 1485 1484 1483 1482 1481 1480 1479 1478 1477 1475 1474 1474 1474 1474 1474 1474 1475 1475 1475 1475 1475 1475 1476 1476
1518 1516 1512 1511 1511 1511 1514 1517 1517 1524 1526 1524 1515 1509 1497 1491 1489 1487 1486 1485 1484 1483 1482 1481 1479 1478 1477 1476 1475 1474 1473 1472 1472 1472 1472 1471 1472 1472 1472 1473 1472 1473 1474 1474
1515 1518 1514 1512 1511 1512 1514 1516 1521 1523 1522 1521 1514 1509 1502 1493 1491 1489 1487 1485 1483 1482 1481 1479 1478 1477 1476 1475 1474 1473 1471 1471 1470 1470 1469 1469 1469 1469 1470 1470 1470 1471 1472 1472
1514 1519 1517 1515 1514 1514 1516 1517 1519 1523 1522 1523 1519 1505 1492 1491 1489 1488 1487 1484 1483 1481 1480 1478 1477 1476 1474 1473 1472 1471 1469 1468 1467 1466 1466 1466 1466 1467 1467 1468 1468 1469 1470 1470
1514 1519 1521 1517 1513 1513 1514 1515 1519 1521 1523 1524 1522 1507 1490 1489 1487 1486 1485 1484 1482 1481 1479 1478 1476 1474 1473 1471 1470 1469 1468 1467 1465 1464 1463 1463 1464 1464 1465 1466 1466 1467 1467 1468
1514 1518 1520 1515 1518 1517 1515 1515 1516 1519 1523 1525 1522 1504 1489 1488 1487 1486 1484 1482 1481 1479 1478 1476 1474 1473 1471 1470 1469 1467 1467 1465 1464 1462 1462 1462 1462 1462 1463 1464 1464 1465 1465 1465
1511 1518 1519 1516 1510 1513 1514 1513 1514 1516 1518 1517 1510 1497 1489 1488 1487 1485 1483 1481 1480 1478 1476 1474 1472 1471 1470 1469 1467 1466 1465 1464 1462 1461 1461 1460 1460 1460 1461 1462 1463 1463 1463 1464
1511 1517 1518 1515 1512 1511 1510 1509 1509 1510 1507 1506 1498 1496 1488 1487 1486 1484 1482 1480 1478 1476 1474 1473 1471 1469 1468 1467 1466 1465 1463 1462 1461 1460 1460 1460 1459 1459 1460 1460 1460 1461 1461 1462
1512 1517 1517 1513 1510 1509 1508 1505 1505 1504 1502 1500 1496 1492 1485 1484 1484 1482 1480 1478 1476 1474 1472 1471 1469 1467 1466 1465 1464 1463 1462 1461 1460 1459 1459 1459 1458 1458 1459 1459 1459 1459 1460 1460
1515 1517 1517 1515 1513 1507 1504 1498 1498 1498 1496 1495 1492 1486 1484 1483 1481 1479 1478 1476 1475 1473 1471 1469 1468 1466 1465 1464 1463 1462 1461 1460 1459 1458 1458 1457 1457 1457 1457 1458 1458 1458 1458 1458
1513 1516 1520 1519 1515 1511 1493 1490 1490 1491 1489 1488 1485 1482 1481 1480 1478 1477 1476 1475 1473 1471 1469 1467 1466 1464 1464 1462 1461 1460 1459 1458 1457 1457 1456 1456 1456 1455 1456 1456 1456 1457 1457 1457
1509 1514 1520 1522 1518 1505 1492 1488 1488 1489 1485 1481 1481 1479 1479 1478 1476 1474 1473 1472 1471 1469 1468 1466 1464 1463 1462 1460 1459 1458 1457 1456 1456 1455 1455 1454 1454 1454 1454 1454 1455 1455 1455 1455
1511 1513 1519 1521 1514 1503 1487 1485 1484 1487 1485 1476 1476 1476 1477 1477 1478 1472 1470 1469 1468 1467 1466 1464 1462 1461 1460 1459 1458 1456 1455 1455 1454 1454 1453 1453 1453 1453 1453 1453 1453 1453 1453 1453
1512 1516 1518 1517 1514 1498 1485 1484 1485 1490 1482 1474 1473 1473 1473 1474 1473 1470 1468 1467 1466 1464 1463 1461 1460 1459 1458 1457 1456 1455 1454 1453 1453 1453 1452 1452 1451 1451 1451 1451 1451 1451 1451 1451
1506 1510 1513 1514 1510 1495 1482 1483 1484 1479 1474 1473 1471 1471 1470 1469 1468 1467 1466 1464 1463 1462 1461 1460 1458 1457 1457 1456 1455 1453 1453 1453 1452 1451 1451 1450 1450 1450 1450 1450 1450 1450 1450 1450
1500 1496 1496 1495 1488 1479 1477 1476 1475 1474 1473 1471 1470 1469 1468 1467 1466 1464 1463 1462 1461 1460 1459 1458 1457 1456 1455 1454 1453 1452 1452 1451 1451 1450 1449 1449 1449 1449 1448 1448 1448 1448 1448 1448
1492 1490 1491 1489 1478 1475 1473 1472 1472 1471 1470 1469 1468 1467 1466 1465 1463 1462 1461 1460 1459 1458 1457 1456 1455 1454 1454 1453 1452 1451 1451 1450 1449 1448 1448 1447 1447 1447 1447 1447 1447 1447 1447 1447
1482 1485 1485 1482 1474 1471 1468 1467 1468 1468 1467 1466 1465 1464 1463 1462 1461 1460 1459 1458 1457 1456 1456 1455 1454 1453 1452 1451 1450 1450 1449 1448 1447 1447 1447 1446 1446 1445 1445 1445 1446 1446 1446 1446
1474 1475 1477 1472 1466 1467 1464 1463 1464 1464 1463 1463 1462 1461 1460 1460 1459 1458 1457 1456 1455 1454 1453 1453 1452 1451 1450 1449 1449 1448 1447 1446 1446 1445 1445 1445 1444 1444 1444 1443 1444 1444 1444 1445